Location: UBC Liquid-Mirror Observatory
(49.2876°N, 122.5728°W)
Time: 00:51:51
(UTC-07:00)

Amateur Radio Satellites - All Passes

Search period start: 24 April 2014 00:21
Search period end: 25 April 2014 00:21
Location: UBC Liquid-Mirror Observatory, 49.2876°N, 122.5728°W

Satellite Date Start Highest point End Downlink Frequencies (MHz)
Time Altitude Azimuth
Sapphire 24 Apr 00:28:07 00:33:29 69° 121° (ESE) 00:38:54 437.095 MHz 1200 baud AX-25 AFSK
OPAL 24 Apr 00:46:39 00:47:56 11° 46° (NE) 00:49:14 ?
PCSat 24 Apr 01:12:40 01:18:01 59° 311° (NW) 01:23:24 145.825 MHz
UOSAT-12 24 Apr 01:58:45 02:03:13 42° 239° (WSW) 02:07:37 437.025 FM, 437.400 FM
Sapphire 24 Apr 02:12:42 02:17:24 29° 322° (NW) 02:22:08 437.095 MHz 1200 baud AX-25 AFSK
AO-27 24 Apr 02:14:13 02:17:46 18° 90° (E) 02:21:18 436.795 MHz FM
Oscar 19 24 Apr 02:16:17 02:21:00 33° 95° (E) 02:25:40 437.125 CW, 437.150 USB
KITSAT 1 24 Apr 02:20:09 02:27:53 51° 115° (ESE) 02:35:38 435.175 FM
OPAL 24 Apr 02:20:48 02:25:44 53° 66° (ENE) 02:30:45 ?
ITAMSAT 1 24 Apr 02:23:19 02:27:15 21° 91° (E) 02:31:09 435.822 SSB
Oscar 16 24 Apr 02:25:21 02:30:17 42° 98° (E) 02:35:12 437.025 USB, Beacon 2401.1428
PCSat 24 Apr 02:58:50 03:02:36 19° 334° (NNW) 03:06:22 145.825 MHz
Uribyol 2 24 Apr 03:09:44 03:14:50 54° 101° (E) 03:19:54 436.500 FM
AO-Echo 24 Apr 03:17:43 03:22:22 49° 99° (E) 03:26:54 ?
TMSAT-1 24 Apr 03:19:49 03:23:19 18° 88° (E) 03:26:49 436.925 FM
AO-27 24 Apr 03:52:39 03:57:50 72° 288° (WNW) 04:02:59 436.795 MHz FM
Oscar 19 24 Apr 03:55:34 04:00:25 40° 294° (WNW) 04:05:14 437.125 CW, 437.150 USB
Sapphire 24 Apr 04:00:11 04:02:41 13° 348° (NNW) 04:05:11 437.095 MHz 1200 baud AX-25 AFSK
OPAL 24 Apr 04:00:47 04:04:55 25° 265° (W) 04:09:08 ?
ITAMSAT 1 24 Apr 04:02:03 04:07:10 61° 290° (WNW) 04:12:16 435.822 SSB
Oscar 16 24 Apr 04:04:57 04:09:33 33° 297° (WNW) 04:14:08 437.025 USB, Beacon 2401.1428
Gurwin Techsat 1B 24 Apr 04:13:36 04:18:55 64° 102° (ESE) 04:24:10 435.225 FM
KITSAT 1 24 Apr 04:15:25 04:23:20 53° 318° (NW) 04:31:18 435.175 FM
RS-15 24 Apr 04:36:07 04:41:30 15° 95° (E) 04:46:48 29.354 - 29.394 USB, Beacon 29.352 USB
PCSat 24 Apr 04:46:23 04:48:19 12° 0° (N) 04:50:14 145.825 MHz
Uribyol 2 24 Apr 04:49:47 04:54:01 26° 300° (WNW) 04:58:15 436.500 FM
AO-Echo 24 Apr 04:57:04 05:00:53 24° 299° (WNW) 05:04:39 ?
TMSAT-1 24 Apr 04:58:33 05:03:51 76° 288° (WNW) 05:09:08 436.925 FM
JAS-1B 24 Apr 05:00:30 05:06:07 58° 102° (ESE) 05:11:59 435.800 - 435.900 CW/SSB
STRAND 1 24 Apr 05:09:55 05:12:42 15° 54° (NE) 05:15:30 ?
Uosat F 24 Apr 05:19:03 05:24:03 66° 103° (ESE) 05:29:01 435.120 FM
AO-7 24 Apr 05:24:17 05:32:19 49° 100° (E) 05:40:18 29.400 - 29.500 MHz
MaSat-1 24 Apr 05:25:39 05:28:20 34° 55° (NE) 05:31:26 437.345 MHz
AO-27 24 Apr 05:34:00 05:36:29 14° 308° (NW) 05:38:58 436.795 MHz FM
ITAMSAT 1 24 Apr 05:43:52 05:45:41 12° 310° (NW) 05:47:30 435.822 SSB
Sapphire 24 Apr 05:45:55 05:48:35 14° 14° (NNE) 05:51:15 437.095 MHz 1200 baud AX-25 AFSK
Gurwin Techsat 1B 24 Apr 05:54:21 05:58:28 23° 301° (WNW) 06:02:33 435.225 FM
KITSAT 1 24 Apr 06:14:06 06:20:45 26° 345° (NNW) 06:27:23 435.175 FM
Hamsat 24 Apr 06:19:59 06:22:36 15° 89° (E) 06:25:13 145.90 MHz
PCSat 24 Apr 06:30:15 06:34:02 19° 26° (NNE) 06:37:48 145.825 MHz
AO-40 24 Apr 06:32:34 11:10:40 26° 167° (SSE) 13:22:49 Beacon 2401.320
TMSAT-1 24 Apr 06:40:07 06:42:57 15° 307° (NW) 06:45:46 436.925 FM
RS-15 24 Apr 06:40:25 06:51:22 61° 118° (ESE) 07:02:01 29.354 - 29.394 USB, Beacon 29.352 USB
STRAND 1 24 Apr 06:46:01 06:51:08 81° 73° (ENE) 06:56:16 ?
JAS-1B 24 Apr 06:51:58 06:56:31 25° 302° (WNW) 07:01:10 435.800 - 435.900 CW/SSB
Uosat F 24 Apr 06:58:43 07:02:24 21° 302° (WNW) 07:06:05 435.120 FM
MaSat-1 24 Apr 07:04:29 07:06:34 17° 248° (WSW) 07:08:53 437.345 MHz
AO-7 24 Apr 07:17:16 07:25:09 49° 302° (WNW) 07:33:01 29.400 - 29.500 MHz
SO-67 24 Apr 07:25:48 07:27:14 12° 89° (E) 07:28:40 435.3500 MHz FM
Sapphire 24 Apr 07:28:57 07:33:47 32° 39° (NE) 07:38:37 437.095 MHz 1200 baud AX-25 AFSK
JAS-2 24 Apr 07:53:32 07:58:44 43° 99° (E) 08:04:28 435.800 - 435.900 CW/SSB, 435.910 FM
Hamsat 24 Apr 07:54:42 07:59:02 66° 287° (WNW) 08:03:22 145.90 MHz
Oscar 10/S400 24 Apr 08:06:37 09:03:42 57° 182° (S) 17:19:28 145.825 - 145.975 CW/USB, Beacon 145.810 USB
KITSAT 1 24 Apr 08:12:24 08:19:05 27° 15° (NNE) 08:25:43 435.175 FM
PCSat 24 Apr 08:13:13 08:18:36 59° 49° (NE) 08:23:57 145.825 MHz
STRAND 1 24 Apr 08:27:55 08:30:58 16° 272° (W) 08:34:02 ?
RS-15 24 Apr 08:53:05 09:04:00 56° 324° (NW) 09:14:45 29.354 - 29.394 USB, Beacon 29.352 USB
SO-67 24 Apr 08:57:18 09:00:45 55° 287° (WNW) 09:04:10 435.3500 MHz FM
AO-7 24 Apr 09:11:27 09:16:03 16° 325° (NW) 09:20:39 29.400 - 29.500 MHz
Sapphire 24 Apr 09:12:14 09:17:35 61° 241° (WSW) 09:22:54 437.095 MHz 1200 baud AX-25 AFSK
JAS-2 24 Apr 09:38:59 09:43:49 34° 296° (WNW) 09:49:04 435.800 - 435.900 CW/SSB, 435.910 FM
Oscar 11 24 Apr 09:49:02 09:51:10 13° 88° (E) 09:53:18 145.825 FM, Beacon 2401.500 USB
HO-68 24 Apr 09:49:09 09:55:46 38° 96° (E) 10:02:22 435.675 MHz FM
PCSat 24 Apr 09:57:10 10:01:42 28° 250° (WSW) 10:06:13 145.825 MHz
KITSAT 1 24 Apr 10:08:28 10:16:26 55° 42° (NE) 10:24:20 435.175 FM
Saudisat 1A 24 Apr 10:34:01 10:38:23 57° 124° (SE) 10:42:47 436.775 MHz
RS-15 24 Apr 11:09:18 11:19:11 36° 357° (N) 11:29:02 29.354 - 29.394 USB, Beacon 29.352 USB
Oscar 11 24 Apr 11:23:32 11:27:55 76° 286° (WNW) 11:32:16 145.825 FM, Beacon 2401.500 USB
FUNcube-1 24 Apr 11:29:38 11:33:46 45° 99° (E) 11:37:58 145.950 - 145.970 MHz USB
HO-68 24 Apr 11:36:47 11:43:42 53° 297° (WNW) 11:50:37 435.675 MHz FM
Oscar 19 24 Apr 12:01:24 12:03:53 14° 52° (NE) 12:06:21 437.125 CW, 437.150 USB
KITSAT 1 24 Apr 12:04:09 12:11:50 49° 245° (WSW) 12:19:27 435.175 FM
Oscar 16 24 Apr 12:09:49 12:12:59 17° 55° (NE) 12:16:10 437.025 USB, Beacon 2401.1428
Saudisat 1A 24 Apr 12:14:22 12:18:17 29° 325° (NW) 12:22:13 436.775 MHz
Uribyol 2 24 Apr 12:54:19 12:58:08 21° 58° (ENE) 13:01:57 436.500 FM
AO-Echo 24 Apr 12:58:09 13:01:26 18° 57° (ENE) 13:04:41 ?
Oscar 11 24 Apr 13:01:59 13:03:21 11° 305° (NW) 13:04:44 145.825 FM, Beacon 2401.500 USB
FUNcube-1 24 Apr 13:06:36 13:09:58 23° 297° (WNW) 13:13:23 145.950 - 145.970 MHz USB
RS-15 24 Apr 13:24:07 13:34:40 49° 30° (NNE) 13:45:18 29.354 - 29.394 USB, Beacon 29.352 USB
HO-68 24 Apr 13:26:12 13:29:54 15° 319° (NW) 13:33:37 435.675 MHz FM
ISS 24 Apr 13:30:52 13:32:45 14° 137° (SE) 13:34:38 145.800 FM
AO-27 24 Apr 13:36:06 13:40:58 42° 66° (ENE) 13:45:50 436.795 MHz FM
Oscar 19 24 Apr 13:37:13 13:42:21 72° 72° (ENE) 13:47:32 437.125 CW, 437.150 USB
ITAMSAT 1 24 Apr 13:45:12 13:50:09 49° 68° (ENE) 13:55:08 435.822 SSB
Oscar 16 24 Apr 13:46:29 13:51:38 89° 75° (ENE) 13:56:52 437.025 USB, Beacon 2401.1428
Saudisat 1A 24 Apr 13:57:19 13:59:18 13° 348° (NNW) 14:01:17 436.775 MHz
Gurwin Techsat 1B 24 Apr 14:00:32 14:04:49 26° 60° (ENE) 14:09:07 435.225 FM
JAS-1B 24 Apr 14:02:32 14:06:50 18° 53° (NE) 14:10:46 435.800 - 435.900 CW/SSB
SO-50 24 Apr 14:22:56 14:26:44 27° 117° (ESE) 14:30:33 436.795 FM
Uribyol 2 24 Apr 14:32:00 14:37:09 69° 257° (WSW) 14:42:19 436.500 FM
AO-Echo 24 Apr 14:34:28 14:39:39 83° 256° (WSW) 14:44:42 ?
AO-7 24 Apr 14:37:34 14:44:08 27° 47° (NE) 14:50:42 29.400 - 29.500 MHz
TMSAT-1 24 Apr 14:44:18 14:49:12 41° 66° (ENE) 14:54:09 436.925 FM
Uosat F 24 Apr 14:59:18 15:03:12 23° 59° (ENE) 15:07:06 435.120 FM
ISS 24 Apr 15:05:39 15:08:58 64° 155° (SSE) 15:12:17 145.800 FM
AO-27 24 Apr 15:16:01 15:20:36 31° 265° (W) 15:25:13 436.795 MHz FM
Oscar 19 24 Apr 15:18:44 15:22:15 18° 271° (W) 15:25:47 437.125 CW, 437.150 USB
ITAMSAT 1 24 Apr 15:25:33 15:29:54 27° 266° (W) 15:34:16 435.822 SSB
Oscar 16 24 Apr 15:29:03 15:31:45 14° 273° (W) 15:34:28 437.025 USB, Beacon 2401.1428
RS-15 24 Apr 15:36:56 15:47:49 74° 238° (WSW) 15:58:56 29.354 - 29.394 USB, Beacon 29.352 USB
Saudisat 1A 24 Apr 15:38:46 15:40:48 13° 13° (NNE) 15:42:51 436.775 MHz
Gurwin Techsat 1B 24 Apr 15:39:14 15:44:27 57° 259° (W) 15:49:43 435.225 FM
JAS-1B 24 Apr 15:49:20 15:56:46 78° 72° (ENE) 16:03:02 435.800 - 435.900 CW/SSB
SO-50 24 Apr 16:02:43 16:07:05 50° 317° (NW) 16:11:31 436.795 FM
OPAL 24 Apr 16:05:03 16:10:15 61° 104° (ESE) 16:15:24 ?
UOSAT-12 24 Apr 16:14:31 16:18:03 22° 114° (ESE) 16:21:38 437.025 FM, 437.400 FM
AO-Echo 24 Apr 16:17:00 16:19:10 13° 274° (W) 16:21:19 ?
TMSAT-1 24 Apr 16:24:27 16:29:13 34° 265° (W) 16:34:01 436.925 FM
AO-7 24 Apr 16:27:40 16:35:58 88° 69° (ENE) 16:44:19 29.400 - 29.500 MHz
Uosat F 24 Apr 16:36:41 16:41:38 59° 258° (WSW) 16:46:37 435.120 FM
ISS 24 Apr 16:42:27 16:45:46 56° 355° (N) 16:49:05 145.800 FM
Hamsat 24 Apr 17:17:42 17:20:43 19° 61° (ENE) 17:23:47 145.90 MHz
Saudisat 1A 24 Apr 17:17:50 17:21:47 30° 36° (NE) 17:25:42 436.775 MHz
JAS-1B 24 Apr 17:42:27 17:47:56 22° 268° (W) 17:52:52 435.800 - 435.900 CW/SSB
OPAL 24 Apr 17:44:35 17:48:45 25° 303° (WNW) 17:52:55 ?
SO-50 24 Apr 17:45:49 17:48:42 16° 339° (NNW) 17:51:37 436.795 FM
RS-15 24 Apr 17:50:57 17:58:11 21° 261° (W) 18:05:35 29.354 - 29.394 USB, Beacon 29.352 USB
UOSAT-12 24 Apr 17:53:15 17:57:49 63° 314° (NW) 18:02:29 437.025 FM, 437.400 FM
JAS-2 24 Apr 18:11:29 18:16:02 29° 62° (ENE) 18:20:26 435.800 - 435.900 CW/SSB, 435.910 FM
ISS 24 Apr 18:19:21 18:22:42 74° 15° (NNE) 18:26:04 145.800 FM
AO-7 24 Apr 18:23:28 18:29:48 24° 270° (W) 18:36:12 29.400 - 29.500 MHz
HO-68 24 Apr 18:39:51 18:42:44 13° 38° (NE) 18:45:38 435.675 MHz FM
Hamsat 24 Apr 18:52:13 18:56:21 54° 260° (W) 19:00:35 145.90 MHz
STRAND 1 24 Apr 18:53:16 18:56:57 20° 90° (E) 19:00:37 ?
Saudisat 1A 24 Apr 18:57:19 19:01:37 52° 237° (WSW) 19:05:52 436.775 MHz
SO-50 24 Apr 19:29:20 19:31:09 12° 4° (N) 19:32:58 436.795 FM
SO-67 24 Apr 19:34:40 19:38:10 87° 257° (WSW) 19:41:42 435.3500 MHz FM
UOSAT-12 24 Apr 19:35:32 19:38:52 19° 336° (NNW) 19:42:15 437.025 FM, 437.400 FM
JAS-2 24 Apr 19:55:46 20:01:02 46° 261° (W) 20:06:03 435.800 - 435.900 CW/SSB, 435.910 FM
ISS 24 Apr 19:56:14 19:59:16 32° 214° (SW) 20:02:18 145.800 FM
HO-68 24 Apr 20:22:03 20:28:44 45° 61° (ENE) 20:35:27 435.675 MHz FM
STRAND 1 24 Apr 20:31:33 20:36:37 65° 289° (WNW) 20:41:39 ?
Oscar 11 24 Apr 20:48:02 20:51:05 19° 61° (ENE) 20:54:08 145.825 FM, Beacon 2401.500 USB
SO-50 24 Apr 21:09:48 21:13:24 22° 29° (NNE) 21:17:02 436.795 FM
MaSat-1 24 Apr 21:10:27 21:13:06 71° 118° (ESE) 21:15:34 437.345 MHz
UOSAT-12 24 Apr 21:18:49 21:20:51 13° 1° (N) 21:22:52 437.025 FM, 437.400 FM
HO-68 24 Apr 22:09:41 22:16:27 45° 261° (W) 22:23:18 435.675 MHz FM
STRAND 1 24 Apr 22:12:53 22:14:53 12° 309° (NW) 22:16:52 ?
Oscar 11 24 Apr 22:22:39 22:26:54 57° 259° (W) 22:31:12 145.825 FM, Beacon 2401.500 USB
FUNcube-1 24 Apr 22:30:24 22:34:30 60° 72° (ENE) 22:38:37 145.950 - 145.970 MHz USB
SO-50 24 Apr 22:49:59 22:54:38 84° 50° (NE) 22:59:21 436.795 FM
UOSAT-12 24 Apr 22:59:19 23:02:48 20° 25° (NNE) 23:06:15 437.025 FM, 437.400 FM
PCSat 24 Apr 23:00:38 23:04:35 21° 107° (ESE) 23:08:33 145.825 MHz
Sapphire 24 Apr 23:57:54 00:03:08 53° 118° (ESE) 00:08:25 437.095 MHz 1200 baud AX-25 AFSK
FUNcube-1 25 Apr 00:08:54 00:11:21 15° 271° (W) 00:13:49 145.950 - 145.970 MHz USB
